Weather History for Baker, MT

Change the Weather History Date:

Wednesday, May 13, 2009

  Actual Average Record
Temperature  
Mean Temperature 38 °F -  
Max Temperature 46 °F 67 °F 93 °F (2001)
Min Temperature 30 °F 42 °F 16 °F (2004)
Degree Days  
Heating Degree Days 27    
Moisture  
Dew Point 31 °F    
Average Humidity 83    
Maximum Humidity 93    
Minimum Humidity 53    
Precipitation  
Precipitation 0.07 in - - ()
Sea Level Pressure  
Sea Level Pressure 29.83 in    
Wind  
Wind Speed 24 mph (WNW)    
Max Wind Speed 34 mph    
Max Gust Speed 48 mph    
Visibility 6 miles    
Events Fog , Rain , Snow    
Averages and records for this station are not official NWS values.
T = Trace of Precipitation, MM = Missing Value Source: NWS Daily Summary

Daily Weather History Graph

Daily Weather History Graph

Search for Another Location

Airport:

Trip Planner

Search our weather history database for the weather conditions in past years. The results will help you decide how hot, cold, wet, or windy it might be!

Date:

Astronomy

May. 13, 2009 Rise Set
Actual Time 5:25 AM MDT 8:21 PM MDT
Civil Twilight 4:50 AM MDT 8:56 PM MDT
Nautical Twilight 4:05 AM MDT 9:42 PM MDT
Astronomical Twilight 3:12 AM MDT 10:36 PM MDT
Moon 12:08 AM MDT (5/13) 8:31 AM MDT (5/13)
Length of Visible Light 16h 06m
Length of Day
14h 55m
Waning Gibbous, 81% of the Moon is Illuminated
May 13
Waning Gibbous
May 17
Last Quarter
May 24
New
May 30
First Quarter
Jun 7
Full

Hourly Weather History & Observations

Time (MDT) Temp. Windchill Dew Point Humidity Pressure Visibility Wind Dir Wind Speed Gust Speed Precip Events Conditions
12:53 AM 46.9 °F - 37.9 °F 71% 29.57 in 10.0 mi West 15.0 mph - N/A   Overcast
1:53 AM 45.0 °F 37.1 °F 37.0 °F 74% 29.58 in 10.0 mi West 19.6 mph - N/A   Mostly Cloudy
2:53 AM 46.0 °F 38.8 °F 34.0 °F 63% 29.60 in 10.0 mi West 18.4 mph 25.3 mph N/A   Overcast
3:53 AM 43.0 °F 34.2 °F 28.0 °F 56% 29.63 in 10.0 mi West 20.7 mph - N/A   Clear
4:53 AM 41.0 °F 31.9 °F 25.0 °F 53% 29.63 in 10.0 mi West 19.6 mph - N/A   Clear
5:53 AM 39.9 °F 29.7 °F 28.0 °F 63% 29.64 in 10.0 mi West 23.0 mph 29.9 mph N/A   Clear
6:53 AM 41.0 °F 30.9 °F 26.1 °F 55% 29.68 in 10.0 mi West 24.2 mph 40.3 mph N/A   Clear
7:53 AM 39.9 °F 29.7 °F 30.9 °F 70% 29.70 in 10.0 mi West 23.0 mph 36.8 mph N/A   Overcast
8:00 AM 39.2 °F 27.8 °F 30.2 °F 70% 29.68 in 10.0 mi West 27.6 mph 33.4 mph N/A   Overcast
8:53 AM 37.0 °F 25.9 °F 34.0 °F 89% 29.73 in 6.0 mi WNW 23.0 mph 34.5 mph 0.00 in Snow Light Snow
9:08 AM 37.4 °F 26.6 °F 35.6 °F 93% 29.70 in 8.0 mi West 21.9 mph 31.1 mph 0.00 in Rain Light Rain
9:14 AM 35.6 °F 24.5 °F 33.8 °F 93% 29.71 in 1.5 mi WNW 20.7 mph 34.5 mph 0.03 in Snow Light Snow
9:21 AM 33.8 °F 21.6 °F 32.0 °F 93% 29.71 in 0.5 mi WNW 23.0 mph 34.5 mph 0.06 in Fog , Snow Snow
9:38 AM 35.6 °F 23.7 °F 33.8 °F 93% 29.71 in 1.2 mi WNW 24.2 mph 34.5 mph 0.06 in Snow Light Snow
9:51 AM 35.6 °F 24.0 °F 33.8 °F 93% 29.72 in 3.0 mi WNW 23.0 mph 33.4 mph 0.06 in Snow Light Snow
9:52 AM 36.0 °F 24.4 °F 34.0 °F 93% 29.75 in 3.0 mi WNW 23.0 mph 32.2 mph 0.06 in Snow Light Snow
10:10 AM 37.4 °F 25.2 °F 33.8 °F 87% 29.72 in 4.0 mi WNW 28.8 mph 34.5 mph 0.00 in Snow Light Snow
10:24 AM 35.6 °F 22.3 °F 33.8 °F 93% 29.73 in 1.8 mi WNW 31.1 mph 39.1 mph 0.00 in Snow Light Snow
10:37 AM 37.4 °F 25.6 °F 33.8 °F 87% 29.73 in 3.0 mi WNW 26.5 mph 38.0 mph 0.00 in Snow Light Snow
10:44 AM 39.2 °F 28.0 °F 35.6 °F 87% 29.74 in 9.0 mi WNW 26.5 mph 40.3 mph 0.00 in   Unknown
10:53 AM 36.0 °F 22.2 °F 34.0 °F 93% 29.78 in 2.0 mi WNW 34.5 mph 42.6 mph 0.00 in Snow Light Snow
10:56 AM 35.6 °F 23.4 °F 33.8 °F 93% 29.75 in 1.0 mi WNW 25.3 mph 42.6 mph 0.00 in Snow Light Snow
11:03 AM 33.8 °F 19.6 °F 32.0 °F 93% 29.76 in 0.5 mi WNW 32.2 mph 47.2 mph 0.01 in Fog , Snow Snow
11:10 AM 37.4 °F 25.6 °F 33.8 °F 87% 29.76 in 2.5 mi WNW 26.5 mph 38.0 mph 0.01 in Snow Light Snow
11:17 AM 35.6 °F 22.1 °F 32.0 °F 87% 29.76 in 4.0 mi WNW 32.2 mph 43.7 mph 0.01 in Snow Light Snow
11:28 AM 35.6 °F 21.7 °F 30.2 °F 81% 29.78 in 9.0 mi WNW 34.5 mph 47.2 mph 0.01 in Snow Light Snow
11:53 AM 34.0 °F 20.3 °F 28.9 °F 82% 29.83 in 9.0 mi WNW 29.9 mph 42.6 mph 0.01 in Snow Light Snow
12:53 PM 34.0 °F 19.5 °F 28.0 °F 79% 29.86 in 9.0 mi WNW 34.5 mph 46.0 mph 0.00 in   Overcast
1:53 PM 35.1 °F 21.4 °F 28.0 °F 76% 29.90 in 7.0 mi WNW 32.2 mph 46.0 mph 0.00 in   Overcast
2:06 PM 33.8 °F 20.1 °F 28.4 °F 81% 29.87 in 2.5 mi WNW 29.9 mph 48.3 mph 0.00 in Snow Light Snow
2:12 PM 33.8 °F 19.6 °F 28.4 °F 81% 29.87 in 1.5 mi WNW 32.2 mph 41.4 mph 0.00 in Snow Light Snow
2:20 PM 33.8 °F 19.2 °F 30.2 °F 87% 29.88 in 2.0 mi WNW 34.5 mph 44.9 mph 0.00 in Snow Light Snow
2:31 PM 35.6 °F 21.9 °F 30.2 °F 81% 29.89 in 4.0 mi WNW 33.4 mph 43.7 mph 0.00 in Snow Light Snow
2:33 PM 35.6 °F 21.7 °F 30.2 °F 81% 29.89 in 1.8 mi WNW 34.5 mph 44.9 mph 0.00 in Snow Light Snow
2:46 PM 33.8 °F 19.4 °F 30.2 °F 87% 29.89 in 2.0 mi WNW 33.4 mph 48.3 mph 0.00 in Snow Light Snow
2:53 PM 33.1 °F 19.6 °F 30.0 °F 89% 29.94 in 1.5 mi WNW 27.6 mph 46.0 mph 0.00 in Snow Light Snow
3:07 PM 33.8 °F 19.4 °F 30.2 °F 87% 29.90 in 2.0 mi WNW 33.4 mph 41.4 mph 0.00 in Snow Light Snow
3:15 PM 33.8 °F 20.1 °F 30.2 °F 87% 29.91 in 1.2 mi WNW 29.9 mph 40.3 mph 0.00 in Snow Light Snow
3:37 PM 33.8 °F 20.3 °F 30.2 °F 87% 29.93 in 1.0 mi WNW 28.8 mph 40.3 mph 0.00 in Snow Light Snow
3:49 PM 35.6 °F 23.4 °F 32.0 °F 87% 29.93 in 1.5 mi WNW 25.3 mph 40.3 mph 0.00 in Snow Light Snow
3:53 PM 34.0 °F 21.3 °F 32.0 °F 92% 29.98 in 1.2 mi WNW 25.3 mph 39.1 mph 0.00 in Snow Light Snow
4:06 PM 33.8 °F 19.2 °F 30.2 °F 87% 29.94 in 1.2 mi WNW 34.5 mph 41.4 mph 0.00 in Snow Light Snow
4:15 PM 33.8 °F 19.4 °F 30.2 °F 87% 29.94 in 3.0 mi WNW 33.4 mph 43.7 mph 0.00 in Snow Light Snow
4:29 PM 33.8 °F 19.9 °F 30.2 °F 87% 29.95 in 10.0 mi WNW 31.1 mph 42.6 mph 0.00 in   Overcast
4:53 PM 34.0 °F 20.3 °F 28.9 °F 82% 30.01 in 10.0 mi WNW 29.9 mph 38.0 mph 0.00 in   Overcast
5:53 PM 35.1 °F 22.5 °F 30.0 °F 82% 30.03 in 10.0 mi WNW 26.5 mph 36.8 mph N/A   Overcast
6:53 PM 37.0 °F 27.7 °F 30.9 °F 79% 30.05 in 10.0 mi WNW 16.1 mph 25.3 mph N/A   Overcast
7:53 PM 37.0 °F 27.0 °F 30.9 °F 79% 30.06 in 10.0 mi WNW 18.4 mph 24.2 mph N/A   Overcast
8:53 PM 37.0 °F 28.5 °F 30.9 °F 79% 30.09 in 10.0 mi WNW 13.8 mph - N/A   Overcast
9:24 PM 35.6 °F 28.0 °F 30.2 °F 81% 30.04 in 10.0 mi NW 10.4 mph - N/A   Scattered Clouds
9:53 PM 33.1 °F 28.7 °F 30.0 °F 89% 30.12 in 10.0 mi West 4.6 mph - N/A   Clear
10:53 PM 30.9 °F 27.5 °F 28.9 °F 92% 30.12 in 10.0 mi WNW 3.5 mph - N/A   Clear
11:53 PM 30.9 °F 26.2 °F 28.0 °F 89% 30.10 in 10.0 mi WNW 4.6 mph - N/A   Clear